#timestamp,LO_Frequency,Hit,StdDev 
1652569215.9,286046996.5,N
1652569235.7,286046996.6,N
1652569255.5,286046999.6,N
1652569275.4,286046998.7,N
1652569295.2,286046999.0,N
1652569315.0,286046998.3,N
1652569315.9,286046998.3,N
1652569335.8,286046997.1,N
1652569355.6,286046996.6,N
1652569375.5,286046996.5,N
1652569395.3,286046996.7,N
1652569415.1,286046997.9,N
1652569435.9,286046996.7,N
1652569455.7,286046995.0,Y
1652569475.5,286046998.8,P
1652569495.4,286046999.4,N
1652569515.2,286046998.9,N
1652569535.1,286046998.1,Y
1652569536.0,286046998.1,P
1652569555.8,286046999.9,N
1652569575.6,286046999.8,N
1652569595.5,286047002.6,Y
1652569615.3,286047001.7,P
1652569635.2,286047002.0,N
1652569655.9,286047002.0,N
1652569675.7,286047002.2,N
1652569695.6,286047001.9,N
1652569715.4,286047001.8,N
1652569735.2,286047002.1,N
1652569755.1,286047001.8,N
1652569756.0,286047001.8,N
1652569775.8,286047001.8,N
1652569795.7,286047004.0,Y
1652569815.5,286047002.8,P
1652569835.3,286046999.8,N
1652569855.2,286046999.7,N
1652569875.0,286047000.2,N
1652569875.9,286047000.2,N
1652569895.8,286047000.2,N
1652569915.6,286047002.6,N
1652569935.4,286047002.7,N
1652569955.3,286047002.7,N
1652569975.1,286047002.0,N
1652569995.8,286047001.8,N
1652570015.7,286047002.6,N
1652570035.5,286047001.5,N
1652570055.4,286047004.3,Y
1652570075.2,286047002.7,P
1652570095.0,286047002.7,P
1652570095.9,286047002.7,P
1652570115.8,286047004.3,Y
1652570135.6,286047000.8,P
1652570155.5,286046998.3,N
1652570175.3,286046998.3,N
1652570195.1,286047000.1,N
1652570215.9,286046998.8,N
1652570235.7,286046998.3,N
1652570255.6,286046999.4,N
1652570275.4,286046996.6,N
1652570295.2,286046999.2,N
1652570315.1,286046998.6,N
1652570316.0,286046998.6,N
1652570335.8,286046999.2,N
1652570355.6,286046999.4,N
1652570375.5,286046997.7,N
1652570395.3,286046999.6,N
1652570415.2,286046997.2,N
1652570435.9,286046997.0,N
1652570455.7,286046999.5,N
1652570475.6,286046998.5,N
1652570495.4,286046998.4,N
1652570515.2,286046999.6,N
1652570535.1,286046999.6,N
1652570536.0,286046999.6,N
1652570555.8,286046996.7,N
1652570575.7,286046998.0,N
1652570595.5,286046997.9,N
1652570615.3,286046996.0,Y
1652570635.2,286046997.8,P
1652570655.0,286046996.9,P
1652570655.9,286046996.9,P
1652570675.8,286046996.7,Y
1652570695.6,286046998.6,P
1652570715.4,286046998.6,N
1652570735.3,286046999.2,N
1652570755.1,286046999.2,N
1652570775.8,286046999.6,N
1652570795.7,286046999.2,N
1652570815.5,286046999.2,N
1652570835.4,286046998.9,N
1652570855.2,286046997.3,Y
1652570875.0,286046996.5,P
1652570875.9,286046996.5,N
1652570895.8,286046996.6,P
1652570915.6,286046997.7,N
1652570935.4,286046997.3,N
1652570955.3,286046997.1,Y
1652570975.1,286047000.0,P
1652570995.9,286047000.5,N
1652571015.7,286047002.6,N
1652571035.5,286047000.4,N
1652571055.4,286047000.2,N
1652571075.2,286047000.2,N
1652571095.1,286047002.7,N
1652571096.0,286047002.7,N
1652571115.8,286047002.5,N
1652571135.6,286047001.5,N
1652571155.5,286047000.2,N
1652571175.3,286047001.1,N
1652571195.1,286046998.8,N
1652571215.9,286046998.4,N
1652571235.7,286046999.1,N
1652571255.6,286046998.6,N
1652571275.4,286046998.9,N
1652571295.2,286046998.5,N
1652571315.1,286047000.3,N
1652571316.0,286047000.3,N
1652571335.8,286046998.1,N
1652571355.6,286046998.3,N
1652571375.5,286046998.5,N
1652571395.3,286046998.3,N
1652571415.2,286046998.2,N
1652571435.9,286046998.6,N
1652571455.7,286046998.7,N
1652571475.6,286046999.2,N
1652571495.4,286046998.5,N
1652571515.2,286046998.5,N
1652571535.1,286046998.9,N
1652571536.0,286046998.9,N
1652571555.8,286046999.0,N
1652571575.7,286046999.5,N
1652571595.5,286046999.4,N
1652571615.3,286046996.9,N
1652571635.2,286046997.0,N
1652571655.0,286046999.6,N
1652571655.9,286046999.6,N
1652571675.8,286046998.7,N
1652571695.6,286046999.5,N
1652571715.4,286046998.4,N
1652571735.3,286046998.3,N
1652571755.1,286046998.4,N
1652571775.8,286046998.6,N
1652571795.7,286047001.2,N
1652571815.5,286046998.2,N
1652571835.4,286046998.2,N
1652571855.2,286046996.9,Y
1652571875.0,286047000.7,P
1652571875.9,286047000.7,N
1652571895.8,286046999.8,N
1652571915.6,286047000.3,N
1652571935.4,286047000.7,N
1652571955.3,286047001.2,N
1652571975.1,286046998.2,N
1652571995.9,286046998.2,N
1652572015.7,286046999.8,N
1652572035.5,286047000.9,N
1652572055.4,286047000.2,N
1652572075.2,286047000.8,N
1652572095.0,286047000.9,N
1652572095.9,286047000.9,N
1652572115.8,286047000.4,N
1652572135.6,286046998.8,N
1652572155.5,286046998.1,N
1652572175.3,286046998.2,N
1652572195.1,286047001.1,N
1652572215.9,286046998.3,N
1652572235.7,286046998.7,N
1652572255.5,286046999.1,N
1652572275.4,286046999.0,N
1652572295.2,286047001.1,N
1652572315.1,286046998.5,N
1652572316.0,286046998.5,N
1652572335.8,286046998.9,N
1652572355.6,286046998.3,N
1652572375.5,286046998.8,N
1652572395.3,286046999.1,N
1652572415.2,286046999.2,N
1652572435.9,286046998.6,N
1652572455.7,286047002.8,N
1652572475.6,286047002.8,N
1652572495.4,286046998.3,N
1652572515.2,286046998.3,N
1652572535.1,286046998.6,N
1652572536.0,286046998.6,N
1652572555.8,286046996.7,N
1652572575.7,286046998.2,N
1652572595.5,286047000.7,N
1652572615.3,286046998.2,N
1652572635.2,286046998.4,N
1652572655.0,286046996.7,N
1652572655.9,286046996.7,N
1652572675.8,286046997.3,N
1652572695.6,286046996.9,N
1652572715.4,286046997.8,N
1652572735.3,286046996.8,N
1652572755.1,286046997.4,N
1652572775.8,286046997.0,N
1652572795.7,286046996.8,N
